STARLINK-5718, 55620

Orbit data source: Space-Track

STARLINK-5718, 55620 is a payload satellite owned by SpaceX/Seattle (US) in LEO that was launched on Sun, 12 Feb 2023 UTC via an FALCON 9 launch vehicle from the Air Force Eastern Test Range (AFETR). Payload-class satellites include a variety of spacecraft equipped with specific instruments for various scientific and technological missions. These include communications satellites like Starlink; space stations such as the ISS; scientific satellites like the Hubble; Earth observation satellites from companies like Planet Labs, Umbra, and HawkEye 360; GPS; miniature CubeSats for education and research; and military/defense satellites.

Loading next visibility...
Identifier
55620, 2023-020BD
Orbit
LEO
Country
Flag of USUS
Related business
Manufacturer
SpaceX/Seattle
Mission
Operational Commercial Communications
Bus & Motor
STARLINK, Unknown motor
Mass
305 kg wet, ~290 kg dry
Launch date (UTC)
2023-02-12 (4 years ago)
Launch vehicle
FALCON 9
Launch site
Air Force Eastern Test Range (AFETR)
Object type
Payload
Rocket body
Debris
Shape & HBR
Box + 1 Pan, 10.1 m
Radar Cross Section
13.562 m², Large (>1 m²)

Expand to show TLE details & history
Last TLE update: 10 hours ago

TLE from 10 hours ago
0 STARLINK-5718
1 55620U 23020BD  26264.09010172 -.00000338  00000-0 -27760-5 0  9998
2 55620  43.0041 330.6789 0001213 270.9117  89.1595 15.27572289198926
Epoch: 2026-09-21T02:09Z
TLE epoch observation values (Epoch: 2026-09-21T02:09:44.788Z)
Latitude
-0.00007°
Longitude
-61.73272°
Altitude
482.836 km
Speed
7.626 km/s
True Right ascension
22h 02m 42s
True Declination
0° 00' 00"
Sunlit
Object was in full shadow at epoch
Visualization orbit readout
Latitude
Unknown
Longitude
Unknown
Altitude
Unknown
Speed
Unknown
Apparent Right ascension
Unknown
Apparent Declination
Unknown
Sunlit
N/A
Visualization observer readout
Local Sidereal Time
04:58:39
Azimuth
Unknown
Elevation
Unknown
Doppler factor
Unknown
Orbital elements
Apogee altitude
485.849 km
Perigee altitude
484.184 km
Semi-major axis
6,863.154 km
Eccentricity
0.00012
Inclination
43.0041°
RAAN
330.6789°
Arg. of periapsis
270.9117°
True anomaly
89.1734°
Mean anomaly
89.1595°
Eccentric anomaly
89.16645°
Mean motion
3.81731 °/min
Orbital period
94.31 mins
BSTAR
-0.000002776
Loading maneuver chart data...
Computing Atmospheric mass density...
Loading historical data...
Loading historical data...
Loading historical data...
Loading historical data...
Loading historical data...
Loading historical data...
Loading historical data...

Documentation

Showing up to 5 results
|